Location: Sawmill Trailhead
(33.5800°N, 116.4497°W)
Time: 00:27:03
(UTC-08:00)

Uosat F - Visible Passes

Search period start: 28 November 2014 00:00
Search period end: 08 December 2014 00:00
Orbit: 751 x 762 km, 98.7° (Epoch: 27 November)

Date Brightness Start Highest point End Pass type
(mag) Time Alt. Az. Time Alt. Az. Time Alt. Az.
28 Nov 12.0 03:54:05 10° NNE 03:58:54 46° E 04:03:40 10° S visible
28 Nov 12.4 05:34:07 10° NNW 05:37:16 17° WNW 05:40:24 10° WSW visible
29 Nov 13.6 03:16:10 10° NE 03:19:31 18° E 03:22:50 10° SE visible
29 Nov 11.4 04:53:44 10° N 04:58:25 41° WNW 05:03:04 10° SW visible
30 Nov 11.1 04:14:19 10° NNE 04:19:21 77° ESE 04:24:19 10° S visible
30 Nov 12.9 05:56:43 10° NW 05:57:25 10° WNW 05:58:07 10° WNW visible
30 Nov 14.6 17:06:51 10° W 17:07:36 10° W 17:08:22 10° W visible
01 Dec 12.8 03:35:45 10° NE 03:40:04 29° E 03:44:21 10° SSE visible
01 Dec 11.9 05:14:36 10° NNW 05:18:41 26° WNW 05:22:46 10° SW visible
02 Dec 14.1 02:59:31 10° E 03:00:35 11° E 03:01:39 10° ESE visible
02 Dec 10.9 04:34:46 10° N 04:39:44 66° WNW 04:44:40 10° SSW visible
03 Dec 11.9 03:55:44 10° NNE 04:00:33 47° E 04:05:21 10° S visible
03 Dec 12.4 05:35:50 10° NNW 05:38:54 17° WNW 05:41:58 10° WSW visible
04 Dec 13.5 03:17:46 10° NE 03:21:10 18° E 03:24:33 10° SE visible
04 Dec 11.4 04:55:24 10° N 05:00:03 40° WNW 05:04:41 10° SW visible
05 Dec 11.1 04:15:58 10° NNE 04:20:59 78° ESE 04:25:58 10° S visible
06 Dec 12.8 03:37:21 10° NE 03:41:43 30° E 03:46:02 10° SSE visible
06 Dec 12.0 05:16:16 10° NNW 05:20:19 25° WNW 05:24:22 10° WSW visible
07 Dec 14.1 03:00:55 10° ENE 03:02:13 11° E 03:03:32 10° ESE visible
07 Dec 10.9 04:36:24 10° N 04:41:22 64° WNW 04:46:17 10° SSW visible
